Flag for India Weather past 2 weeks in Thiruvananthapuram, Kerala, India

Now
84 °F

Broken clouds.


Feels Like: 92 °F
Forecast: 77 / 86 °F
Wind: 6 mph from Southeast

Location: Thiruvananthapuram

Current Time: Sep 30, 2014 at 4:47:21 PM

Latest Report: Sep 30, 2014 at 3:40 PM


Visibility: 3 mi

Pressure: 29.77 "Hg

Humidity: 74%

Dew point: 75 °F

Location of ThiruvananthapuramLocation

Historic Weather in Thiruvananthapuram — Graph

°F

Thiruvananthapuram temperature yesterday

Maximum temperature yesterday: 88 °F (at 11:40 AM)
Minimum temperature yesterday: 77 °F (at 1:10 AM)
Average temperature yesterday: 82 °F

Past Weeks' High & Low Weather Summary

 TemperatureHumidityPressure
High88 °F (Sep 16, 1:40 PM)94% (Sep 26, 7:10 PM)29.89 "Hg (Sep 26, 7:10 PM)
Low75 °F (Sep 27, 12:10 AM)62% (Sep 21, 11:10 AM)29.68 "Hg (Sep 17, 2:10 PM)
Average82 °F81%29.79 "Hg
* Reported Sep 15 4:10 PM — Sep 30 3:40 PM, Thiruvananthapuram, Weather by CustomWeather, © 2014

Note: Actual official high and low records may vary slightly from our data, if they occured in-between our weather recording intervals... More about our weather records

Advertising

Thiruvananthapuram weather history for previous 24 hours

 ConditionsComfort  
Time TempWeatherWind HumidityBarometerVisibility
3:40 PM
Sep 30
84 °FBroken clouds.6 mph74%29.77 "Hg3 mi
2:40 PM84 °FBroken clouds.5 mph79%29.77 "Hg3 mi
2:10 PM82 °FBroken clouds.3 mph84%29.77 "HgN/A
1:10 PM82 °FBroken clouds.6 mph84%29.83 "Hg3 mi
12:40 PM82 °FScattered clouds.6 mph84%29.83 "Hg2 mi
12:10 PM82 °FScattered clouds.5 mph84%29.86 "Hg2 mi
10:40 AM82 °FScattered clouds.5 mph79%29.89 "Hg3 mi
10:10 AM82 °FScattered clouds.5 mph79%29.89 "Hg3 mi
9:10 AM82 °FScattered clouds.3 mph79%29.89 "Hg3 mi
8:40 AM81 °FScattered clouds.3 mph84%29.89 "Hg3 mi
7:40 AM79 °FScattered clouds.3 mph84%29.86 "Hg2 mi
7:10 AM79 °FScattered clouds.3 mph89%29.83 "Hg2 mi
6:40 AM77 °FScattered clouds.No wind89%29.83 "Hg2 mi
6:10 AM77 °FPassing clouds.No wind89%29.80 "Hg2 mi
5:40 AM77 °FPassing clouds.No wind89%29.80 "Hg2 mi
4:40 AM77 °FHaze.No wind89%29.77 "Hg2 mi
3:40 AM79 °FHaze.No wind84%29.77 "Hg2 mi
2:40 AM79 °FHaze.No wind84%29.77 "Hg2 mi
1:40 AM79 °FPassing clouds.No wind84%29.80 "Hg2 mi
12:40 AM79 °FPassing clouds.No wind84%29.80 "Hg2 mi
11:40 PM
Sep 29
N/APassing clouds.No windN/A29.83 "Hg2 mi
10:40 PM81 °FPassing clouds.No wind84%29.86 "Hg2 mi
10:10 PM81 °FPassing clouds.No wind84%29.86 "Hg2 mi
9:10 PM81 °FPassing clouds.3 mph84%29.86 "Hg2 mi
8:40 PM81 °FPassing clouds.3 mph84%29.86 "Hg2 mi
8:10 PM81 °FPassing clouds.3 mph84%29.83 "Hg2 mi
7:40 PM81 °FPassing clouds.3 mph84%29.83 "Hg2 mi
7:10 PM81 °FPassing clouds.5 mph84%29.80 "Hg2 mi
6:40 PM82 °FScattered clouds.5 mph79%29.80 "Hg3 mi
5:40 PM82 °FScattered clouds.6 mph79%29.77 "Hg3 mi
5:10 PM84 °FScattered clouds.7 mph74%29.77 "Hg3 mi
4:40 PM84 °FThunderstorms. Broken clouds.7 mph74%29.74 "Hg3 mi
4:10 PM84 °FScattered clouds.9 mph74%29.74 "Hg3 mi
Weather by CustomWeather, © 2014

See weather overviewHow to use our weather pages